Location: Skalnate Pleso
(49.1889°N, 20.2450°E)
Time: 02:53:19
(UTC+01:00)

STARLINK-60 - Pass Details

Date: 19 November 2019
Orbit: 416 x 425 km, 53.0° (Epoch: 09 December)

Event Time Altitude Azimuth Distance (km) Brightness Sun altitude
Exits shadow 05:19:14 30° 316° (NW) 774 3.9 -15.4°
Maximum altitude 05:20:27 46° 10° (N) 571 3.6 -15.2°
Drops below altitude 10° 05:23:42 10° 85° (E) 1,497 7.1 -14.6°
Sets 05:25:51 0° 92° (E) 2,361 8.6 -14.3°
